Regional Weather Roundup
Issued by NWS

Home | Current Version | Previous Version | Graphics & Text | Print | Product List | Glossary On
Versions: 1 2 3 4 5 6 7 8 9 10 11 12 13 14 15 16 17 18 19 20 21 22 23 24 25 26 27 28 29 30 31 32 33 34 35 36 37 38 39 40 41 42 43 44 45 46 47 48 49 50
000
ASUS44 KMEG 300710
RWRTN
TENNESSEE HOURLY STATE WEATHER ROUNDUP
NATIONAL WEATHER SERVICE MEMPHIS TN
200 AM CDT TUE SEP 30 2014

TNZ002-004-019-021-049-052-054-088>092-300800-
WEST TENNESSEE

CITY           SKY/WX    TMP DP  RH WIND       PRES   REMARKS
MEMPHIS INTL   CLEAR     68  58  70 CALM      29.93S
NWS MEMPHIS      N/A     62 N/A N/A MISG        N/A
JACKSON        CLEAR     60  58  92 CALM      29.94S FOG
DYERSBURG      CLEAR     61  50  67 CALM      29.95S
UNION CITY       N/A     57  55  94 CALM      29.94R VSB 1
PARIS          CLEAR     57  54  88 CALM      29.95S
HUNTINGDON     CLEAR     59  56  89 CALM      29.94F
LEXINGTON      CLEAR     59  59 100 CALM      29.93S
SAVANNAH       CLEAR     57  57 100 CALM      29.94S
$$

TNZ008-025-027-028-033-062-065-066-300800-
NORTH MIDDLE TENNESSEE

CITY           SKY/WX    TMP DP  RH WIND       PRES   REMARKS
NASHVILLE      CLEAR     65  61  87 CALM      29.95S
DICKSON        CLEAR     63  57  82 CALM      29.95S
PORTLAND       CLEAR     57  57 100 CALM      29.95S
CLARKSVILLE    CLEAR     56  55  97 CALM      29.95S FOG
LEBANON        CLEAR     59  58  96 CALM      29.94
SMYRNA         CLEAR     59  58  96 CALM      29.96R
MURFREESBORO   CLEAR     62  59  90 CALM      29.95R
COOKEVILLE       N/A     54  54 100 CALM      29.95F VSB 1/2
LIVINGSTON     CLEAR     61  57  86 CALM      29.97F
GALLATIN       CLEAR     60  60 100 CALM      29.96R
CROSSVILLE     CLEAR     60  56  86 CALM      29.99F
$$

TNZ061-075-076-078-094-096-097-300800-
SOUTH MIDDLE TENNESSEE

CITY           SKY/WX    TMP DP  RH WIND       PRES   REMARKS
LEWISBURG      CLEAR     57  56  97 CALM      29.95S
FAYETTEVILLE   CLEAR     61  57  88 MISG      29.96S
TULLAHOMA      CLEAR     57  54  88 CALM      29.97S
WINCHESTER     CLEAR     57  57 100 CALM      29.96S
MCMINNVILLE    MOCLDY    57  57 100 CALM      29.96F
COLUMBIA       CLEAR    N/A N/A N/A CALM      29.94S
SHELBYVILLE    CLEAR     59  59 100 CALM      29.97R
$$

TNZ017-018-042-046-047-300800-
NORTHEAST TENNESSEE

CITY           SKY/WX    TMP DP  RH WIND       PRES   REMARKS
TRI CITIES     CLEAR     57  55  93 CALM      29.99S FOG
ELIZABETHTON   SUNNY     55  55 100 CALM      29.99F
$$

TNZ012-013-036-069-073-074-300800-
CENTRAL EAST TENNESSEE

CITY           SKY/WX    TMP DP  RH WIND       PRES   REMARKS
KNOXVILLE      NOT AVBL
OAK RIDGE      FOG       62  61  96 CALM      29.97S VSB 1/2
GATLINBURG     SUNNY     57  55  94 CALM      29.96F
$$

TNZ083-085-099-300800-
SOUTHEAST TENNESSEE

CITY           SKY/WX    TMP DP  RH WIND       PRES   REMARKS
CHATTANOOGA    CLEAR     64  61  90 CALM      29.96S
$$

SKY/WX REPORTED AS FAIR MEANS FEW OR NO CLOUDS BELOW
12 THOUSAND FEET.




USA.gov is the U.S. government's official web portal to all federal, state and local government web resources and services.